Torna al catalogo

IRIDIUM 105

AttivoComunicazioniPO
NORAD 41921·PAYLOAD·🇺🇸 United States

Lanciato Jan 14, 2017 da Vandenberg Space Force Base

Loading…

Prossimi Passaggi (prossime 24 ore)

TLE

AggiornatoSource: CelesTrak SupGP

Epoca: Sep 14, 2026, 21:40 UTC

1 41921C 17003E   26257.90312500 -.00001363  00000+0 -48722-3 0  2577
2 41921  86.4015  19.3508 0002402 100.3945  29.9863 14.34220560    14

Traccia IRIDIUM 105 in tempo reale con AllMySat

Download on the App Store